Location: Unspecified
(0.0000°N, 0.0000°E)
Time: 20:37:08
(UTC+00:00)

Tiros 1 despin weight - All Passes

Search period start: 22 May 2015 00:00
Search period end: 01 June 2015 00:00
Orbit: 598 x 647 km, 48.2° (Epoch: 22 May)

Date Brightness Start Highest point End Pass type
(mag) Time Alt. Az. Time Alt. Az. Time Alt. Az.
22 May - 07:30:09 10° NNW 07:34:43 54° NE 07:39:20 10° SE daylight
22 May - 09:14:24 10° WSW 09:16:26 12° SW 09:18:12 10° SSW daylight
22 May - 19:39:22 10° SW 19:43:48 89° NW 19:48:13 10° NE visible
23 May - 06:09:15 10° NNE 06:11:01 12° NE 06:13:04 10° ENE daylight
23 May - 07:48:08 10° NW 07:52:43 53° SW 07:57:19 10° SSE daylight
23 May - 18:17:10 10° S 18:20:15 19° SE 18:23:25 10° E visible
23 May - 19:57:54 10° WSW 20:01:49 29° NW 20:05:39 10° N visible
24 May - 06:25:01 10° NNW 06:29:11 32° NE 06:33:25 10° ESE daylight
24 May - 08:07:19 10° W 08:10:49 20° SW 08:14:10 10° S daylight
24 May - 18:33:59 10° SSW 18:38:20 52° SE 18:42:37 10° NE visible
24 May - 20:18:49 10° WNW 20:19:58 11° NW 20:20:50 10° NW visible
25 May - 06:42:30 10° NW 06:47:11 89° SW 06:51:55 10° SE daylight
25 May - 17:13:19 10° SSE 17:14:38 11° SE 17:16:11 10° ESE daylight
25 May - 18:51:59 10° SW 18:56:18 50° NW 19:00:35 10° NNE visible
26 May - 05:20:14 10° N 05:23:36 20° NE 05:27:08 10° E visible
26 May - 07:01:01 10° WNW 07:05:13 31° SW 07:09:22 10° SSE daylight
26 May - 17:28:52 10° SSW 17:32:48 31° SE 17:36:45 10° ENE daylight
26 May - 19:11:17 10° W 19:14:22 18° NW 19:17:18 10° N visible
27 May - 05:37:06 10° NNW 05:41:39 55° NE 05:46:17 10° SE daylight
27 May - 07:21:29 10° WSW 07:23:23 12° SW 07:25:03 10° SSW daylight
27 May - 17:46:21 10° SW 17:50:49 87° NW 17:55:14 10° NE daylight
28 May - 04:16:10 10° NNE 04:17:58 12° NE 04:20:03 10° ENE visible
28 May - 05:55:06 10° NW 05:59:39 52° SW 06:04:14 10° SSE daylight
28 May - 16:24:05 10° S 16:27:14 19° SE 16:30:30 10° E daylight
28 May - 18:04:54 10° WSW 18:08:49 29° NW 18:12:38 10° N daylight
29 May - 04:31:58 10° NNW 04:36:06 33° NE 04:40:21 10° ESE visible
29 May - 06:14:19 10° W 06:17:44 19° SW 06:21:02 10° S daylight
29 May - 16:40:56 10° SSW 16:45:19 54° SE 16:49:38 10° NE daylight
29 May - 18:25:58 10° WNW 18:26:57 10° NW 18:27:40 10° NW visible
30 May - 04:49:28 10° NW 04:54:06 87° SW 04:58:49 10° SE visible
30 May - 15:20:05 10° SSE 15:21:36 12° SE 15:23:23 10° ESE daylight
30 May - 16:58:56 10° SW 17:03:17 49° NW 17:07:34 10° NNE daylight
31 May - 03:27:10 10° N 03:30:31 20° NE 03:34:02 10° E visible
31 May - 05:07:59 10° WNW 05:12:07 31° SW 05:16:14 10° SSE visible
31 May - 15:35:45 10° SSW 15:39:46 32° SE 15:43:46 10° ENE daylight
31 May - 17:18:15 10° W 17:21:20 18° NW 17:24:15 10° N daylight
